Location: ??????
(55.4348°N, 39.2112°E)
Time: 20:11:31
(UTC+00:00)

Intercosmos 25 Rocket - Pass Details

Date: 14 April 2024
Orbit: 434 x 2972 km, 82.6° (Epoch: 17 May)

Event Time Altitude Azimuth Distance (km) Brightness Sun altitude
Rises 01:12:06 0° 344° (NNW) 2,433 6.9 -9.6°
Reaches altitude 10° 01:14:00 10° 340° (NNW) 1,578 5.8 -9.4°
Maximum altitude 01:17:10 56° 261° (W) 599 3.2 -9.0°
Drops below altitude 10° 01:21:09 10° 183° (S) 1,988 5.8 -8.5°
Sets 01:23:49 0° 180° (S) 3,164 6.9 -8.2°
